Wetbulb
73.29 73.47 73.74 73.60 73.02 72.79 72.38 72.08 71.43 71.36 70.74 70.08 71.09 71.51 69.90 71.64 71.55 71.78 71.92 70.96 70.57 70.59 70.82 70.57 70.37 70.43 70.33 69.83 69.32 69.28 68.36 68.59 64.65 66.98 68.55 70.02 70.07 70.03 72.63 73.92 73.01 71.79 72.00
70.29 71.90 73.62 73.09 74.12 73.60 72.75 72.38 72.38 71.12 71.04 71.22 71.04 71.44 71.64 71.31 71.27 71.28 71.24 72.45 71.33 70.83 70.88 69.94 70.24 71.47 69.59 69.26 68.68 68.61 68.51 69.12 67.72 65.55 66.82 68.14 68.65 69.36 69.96 70.80 71.71 73.88 72.27
66.07 67.40 71.31 73.92 73.70 73.89 73.77 73.46 72.85 71.93 71.20 71.62 71.23 71.21 71.54 71.57 71.15 71.22 71.58 71.25 71.20 71.03 70.50 70.45 70.66 69.90 69.65 69.65 69.95 69.64 69.52 70.32 68.69 68.31 67.49 68.95 68.49 69.58 69.35 70.56 71.31 71.54 73.75
68.93 65.64 67.63 73.06 73.73 74.06 74.32 74.10 73.78 72.75 71.87 71.51 72.18 71.83 71.55 71.66 71.57 71.62 71.45 70.94 70.74 71.09 71.10 71.12 70.87 70.12 70.07 69.64 69.45 69.84 69.08 68.96 68.84 68.13 68.01 67.70 68.01 68.74 68.73 67.35 67.58 68.88 68.93
70.22 70.76 68.95 71.90 73.10 74.00 73.66 74.02 73.82 73.27 72.68 72.08 71.93 71.96 71.37 70.97 71.56 71.09 71.44 71.22 71.02 70.97 71.38 71.18 71.35 71.51 70.92 69.87 70.39 69.71 69.25 68.60 68.31 68.04 66.45 67.63 67.63 67.50 66.49 67.56 67.38 67.74 68.57
68.37 70.76 70.68 72.02 72.74 73.13 73.83 73.44 73.26 73.17 73.14 72.50 72.05 71.94 70.92 71.69 68.93 68.92 70.95 71.01 70.79 70.35 70.38 71.61 71.84 71.83 71.15 69.10 68.94 69.32 70.28 69.33 67.83 67.27 67.36 66.31 65.89 66.49 67.38 67.43 66.93 66.04 64.65
66.24 68.88 69.49 69.42 68.46 68.04 72.14 73.08 72.78 72.82 72.27 72.27 72.07 72.24 71.75 71.60 67.49 67.11 69.43 71.39 71.16 71.09 70.59 70.82 71.01 72.72 70.32 71.76 69.03 67.35 67.47 67.73 68.83 68.78 67.02 66.69 66.07 67.03 67.47 67.27 67.54 66.69 66.66
63.44 65.90 68.95 67.41 66.27 65.89 65.44 66.47 69.03 71.80 70.96 70.85 71.01 71.20 70.95 71.89 66.56 65.93 67.56 71.41 71.47 71.45 71.47 71.01 70.63 70.87 70.49 71.19 70.85 70.01 69.05 69.15 68.47 68.44 68.58 68.89 68.21 68.32 69.20 69.47 68.82 67.70 67.07
61.57 63.00 66.44 68.09 67.16 66.22 65.37 64.66 65.23 67.02 68.12 68.44 68.49 66.82 65.97 66.11 63.13 62.87 64.80 69.07 70.19 70.63 71.22 71.22 71.00 70.52 67.80 65.95 69.95 69.22 68.49 68.94 65.29 64.38 64.62 64.91 65.44 65.61 68.37 67.22 65.58 64.09 62.46
59.78 61.25 65.86 66.40 66.87 66.69 65.83 63.48 62.60 63.90 66.14 67.79 67.87 67.90 64.63 65.64 63.08 61.76 63.65 69.10 68.26 68.40 69.57 71.25 66.71 69.96 65.22 63.35 69.52 69.82 68.24 69.09 67.79 65.59 64.26 63.13 62.89 63.10 63.51 66.51 65.60 64.04 60.49
61.47 62.37 63.87 65.04 65.42 66.04 65.10 61.35 60.16 60.75 63.35 64.31 66.32 68.19 66.07 65.44 64.89 60.96 60.40 67.70 69.50 69.50 69.09 70.08 71.46 63.71 62.02 61.13 62.23 70.33 69.07 68.71 67.77 67.79 66.05 65.12 63.42 62.87 61.81 62.05 63.56 62.63 60.06
61.14 61.84 63.06 63.01 64.33 66.27 64.13 63.20 61.20 60.23 60.36 61.26 61.88 62.60 64.08 65.44 61.08 59.66 59.13 60.40 64.85 68.67 69.50 70.15 70.58 62.45 59.86 59.67 61.24 63.51 60.94 64.30 68.64 68.26 67.06 65.79 63.75 62.54 62.55 62.22 62.81 62.07 61.50
60.12 61.14 62.12 62.12 62.56 63.63 63.09 62.95 61.86 60.65 59.14 60.11 61.72 61.31 61.92 63.34 63.31 59.28 58.13 59.06 59.97 63.47 67.50 68.34 63.81 58.80 58.81 59.92 59.06 60.49 60.58 68.17 67.60 66.85 67.85 67.60 64.87 65.11 64.23 62.72 61.24 60.84 60.41
59.69 60.15 59.97 60.07 60.09 61.30 62.65 62.95 64.20 65.17 65.61 63.62 61.69 60.98 62.23 62.39 61.90 62.36 61.73 62.23 61.54 63.37 63.93 66.57 64.96 63.53 61.48 62.62 61.42 61.92 67.13 67.97 67.38 66.77 65.43 65.75 65.80 63.91 63.28 61.69 60.50 60.00 59.05
59.30 59.85 60.09 60.51 59.87 60.03 60.16 61.05 61.82 64.54 64.94 66.93 67.11 66.75 64.02 63.37 63.23 59.18 59.02 62.26 62.68 60.54 60.90 64.64 64.12 64.14 64.09 64.12 64.50 64.84 64.28 65.04 65.84 65.05 64.10 63.38 62.52 62.99 62.56 61.97 60.02 59.54 59.27
58.93 59.74 59.78 59.85 59.74 58.31 59.28 59.45 54.41 53.87 52.60 50.61 51.69 60.15 65.89 59.20 54.23 51.33 50.06 51.15 54.96 52.42 60.72 64.51 64.78 65.66 65.77 65.61 64.93 64.25 63.55 63.96 64.67 63.44 62.86 62.45 61.39 62.09 61.58 61.08 60.56 60.46 59.74
58.82 59.60 60.09 58.47 59.59 57.19 58.07 57.95 58.23 58.24 50.97 48.79 47.89 48.25 47.52 49.70 49.16 47.52 46.80 51.69 53.14 53.51 61.78 63.83 65.84 65.64 66.09 66.27 65.61 65.07 64.49 64.76 64.59 63.72 62.95 62.21 61.94 61.84 60.37 60.42 60.68 60.44 60.30
59.67 57.52 59.89 59.81 59.67 58.09 58.77 58.90 59.13 59.54 60.58 61.26 53.51 52.24 49.34 46.62 46.26 46.98 46.44 49.16 55.24 55.42 63.07 64.33 66.11 66.41 66.47 66.05 65.93 65.14 64.62 64.53 63.58 63.16 62.75 63.08 62.41 61.89 60.18 60.26 60.69 60.62 60.57
59.09 59.54 59.95 60.03 59.47 58.21 58.71 57.63 58.17 59.01 60.07 61.62 57.82 49.34 47.85 44.44 45.17 44.62 45.17 61.33 60.38 60.29 61.87 64.54 66.86 66.93 66.95 66.84 66.67 66.47 65.41 64.32 63.14 62.35 62.13 61.92 62.61 61.78 61.08 61.28 60.75 58.07 58.33
59.13 59.14 59.24 59.71 58.87 57.89 58.37 57.84 58.46 58.89 60.19 61.58 60.69 59.70 53.79 51.24 54.54 55.46 55.72 60.13 61.79 62.34 62.69 63.11 66.42 67.61 67.11 67.07 66.55 65.73 64.81 63.12 62.93 62.25 62.14 61.99 61.54 61.83 61.22 60.52 60.23 59.99 59.72
59.28 59.70 59.69 59.51 58.61 57.77 57.95 57.96 57.97 58.12 59.86 61.84 61.79 59.36 52.42 56.85 58.35 59.40 58.64 58.72 60.61 64.12 65.36 65.62 66.42 67.88 67.72 66.94 66.02 64.90 64.49 63.89 63.79 62.73 61.78 62.26 61.65 60.60 60.30 61.74 61.36 59.79 60.00
59.76 59.60 59.22 58.22 57.81 57.06 57.75 57.98 57.05 57.62 58.78 60.94 61.29 60.75 47.89 57.51 60.04 60.31 60.92 61.21 62.63 65.70 67.88 67.72 68.00 68.02 66.95 66.55 65.16 64.96 64.23 63.52 63.22 62.97 62.92 63.89 63.28 63.27 62.73 62.08 60.93 60.27 60.35
58.88 58.49 57.56 57.06 57.11 56.25 56.74 56.96 57.13 57.08 58.68 61.20 61.98 60.92 58.06 59.38 60.70 62.81 62.87 62.98 64.01 66.66 67.52 67.92 67.32 66.74 65.35 65.68 65.70 65.66 64.74 64.28 64.60 64.67 64.56 64.31 64.26 63.89 62.80 60.76 60.08 59.32 59.21
58.20 58.45 57.93 57.49 57.49 57.23 57.42 57.37 57.38 55.00 57.97 60.68 62.30 61.66 61.76 61.88 62.47 63.41 64.75 64.48 65.07 66.51 67.89 67.02 65.95 65.24 64.78 65.09 65.31 65.94 65.98 66.74 66.61 66.11 65.49 64.88 64.20 59.77 62.45 60.39 59.46 58.64 56.41
57.29 57.39 57.11 56.60 56.69 56.76 57.20 57.31 57.27 58.17 59.34 61.43 63.12 63.72 62.35 62.17 62.58 63.71 65.07 65.19 65.19 65.95 66.71 66.60 65.62 65.33 65.13 64.56 64.23 64.12 55.44 50.26 64.17 58.19 64.98 64.60 63.33 61.93 60.95 59.27 58.19 57.54 57.16
57.68 59.41 58.17 56.99 56.91 57.27 57.67 57.92 58.55 59.54 60.77 62.16 62.64 62.22 61.84 61.92 62.76 64.25 64.90 65.41 65.41 65.22 64.93 65.15 64.45 64.59 64.30 64.32 63.18 49.39 39.73 44.19 53.84 51.69 63.72 63.54 62.02 61.32 58.78 58.27 58.26 57.40 55.77
MSLP
1010.93 1011.01 1011.50 1010.98 1011.22 1011.81 1012.04 1012.37 1012.81 1013.06 1013.16 1013.47 1013.76 1014.10 1014.50 1014.74 1014.80 1015.18 1015.42 1015.68 1015.98 1015.97 1016.08 1016.30 1016.36 1016.36 1016.45 1016.60 1016.82 1016.88 1017.00 1017.26 1017.40 1017.09 1016.48 1016.11 1015.92 1015.72 1015.60 1015.65 1015.67 1015.81 1015.77
1010.78 1010.03 1011.44 1011.56 1011.30 1011.37 1011.63 1011.63 1012.02 1012.33 1012.56 1012.74 1013.06 1013.44 1013.72 1013.99 1014.37 1014.66 1015.01 1015.14 1015.49 1015.78 1015.78 1015.99 1016.08 1016.17 1016.28 1016.16 1016.37 1016.53 1016.75 1016.85 1017.02 1016.94 1016.68 1016.44 1016.18 1015.85 1015.61 1015.72 1015.47 1015.26 1015.36
1010.67 1010.60 1010.94 1011.31 1011.01 1010.87 1010.94 1010.95 1011.29 1011.64 1011.87 1012.08 1012.41 1012.70 1013.04 1013.29 1013.63 1014.03 1014.28 1014.59 1014.76 1015.03 1015.33 1015.51 1015.51 1015.62 1015.84 1015.82 1015.94 1016.15 1016.24 1016.35 1016.47 1016.48 1016.52 1016.20 1016.23 1015.88 1015.77 1015.70 1015.55 1015.36 1015.16
1009.78 1009.60 1010.58 1010.41 1010.10 1009.98 1009.84 1010.03 1010.32 1010.76 1011.13 1011.23 1011.39 1011.70 1012.08 1012.40 1012.77 1013.10 1013.49 1013.78 1014.09 1014.28 1014.49 1014.72 1014.84 1014.95 1015.11 1015.25 1015.47 1015.59 1015.75 1016.01 1016.21 1016.28 1016.34 1016.17 1016.03 1015.76 1015.75 1015.76 1015.65 1015.39 1015.22
1011.48 1010.80 1009.83 1009.73 1009.27 1008.95 1009.39 1009.41 1009.38 1009.81 1009.82 1009.86 1010.41 1010.73 1011.07 1011.45 1011.78 1012.17 1012.55 1012.86 1013.24 1013.59 1013.81 1013.94 1014.10 1014.15 1014.31 1014.55 1014.92 1015.03 1015.25 1015.45 1015.69 1015.98 1016.27 1015.95 1015.78 1015.86 1015.84 1015.47 1015.45 1015.20 1014.82
1011.13 1010.54 1009.79 1008.37 1009.06 1008.67 1008.25 1008.52 1008.62 1008.34 1008.66 1008.92 1009.25 1009.65 1010.16 1010.39 1010.64 1011.15 1011.69 1012.19 1012.57 1012.91 1013.07 1013.24 1013.41 1013.46 1013.67 1013.87 1014.05 1014.21 1014.28 1014.61 1014.96 1015.40 1015.31 1015.43 1015.22 1015.18 1015.21 1015.20 1015.18 1015.26 1015.17
1010.80 1010.23 1009.69 1009.37 1009.20 1009.06 1008.65 1007.80 1007.78 1007.37 1007.59 1007.81 1008.48 1008.90 1009.21 1009.42 1009.86 1010.59 1011.19 1011.62 1011.96 1012.13 1012.29 1012.57 1012.87 1012.87 1013.06 1013.27 1013.36 1013.53 1013.71 1013.79 1013.80 1014.17 1014.55 1014.45 1014.46 1014.49 1014.70 1014.77 1014.79 1014.86 1014.81
1009.91 1010.17 1009.93 1009.56 1009.34 1008.96 1008.70 1008.81 1008.40 1007.07 1007.71 1008.12 1007.69 1007.94 1008.75 1008.95 1009.29 1009.71 1010.35 1010.87 1011.25 1011.47 1011.57 1011.84 1012.11 1012.18 1012.26 1012.59 1012.95 1013.10 1013.10 1013.13 1013.19 1013.45 1013.57 1013.49 1013.52 1013.76 1013.97 1014.01 1014.15 1014.40 1014.54
1009.88 1009.45 1009.26 1009.00 1008.78 1008.52 1008.54 1008.62 1008.51 1008.38 1007.46 1007.27 1007.58 1007.22 1008.74 1009.89 1010.19 1010.43 1011.06 1010.79 1010.50 1010.49 1010.83 1011.09 1011.33 1011.60 1011.65 1011.82 1012.35 1012.56 1012.63 1012.54 1012.60 1012.78 1013.02 1013.04 1013.08 1013.16 1013.27 1013.78 1014.04 1014.48 1014.64
1009.96 1009.52 1008.81 1008.49 1008.43 1008.24 1008.10 1008.35 1008.29 1008.05 1008.11 1007.54 1007.21 1005.51 1007.90 1009.82 1009.44 1009.46 1009.56 1010.51 1010.54 1010.06 1009.94 1010.14 1010.38 1010.67 1010.94 1011.26 1011.61 1011.95 1012.20 1012.13 1012.42 1012.74 1012.90 1012.96 1012.89 1013.01 1013.13 1013.27 1013.64 1014.15 1014.59
1009.22 1009.01 1008.71 1008.32 1008.01 1007.76 1007.77 1008.00 1008.14 1008.25 1008.17 1007.99 1007.63 1007.00 1006.67 1006.86 1006.78 1006.71 1007.90 1009.15 1009.59 1009.61 1009.33 1009.31 1009.26 1009.53 1010.05 1010.41 1010.83 1011.04 1011.10 1011.24 1011.66 1012.02 1012.29 1012.59 1012.81 1012.94 1013.02 1013.14 1013.30 1013.60 1014.06
1008.67 1008.36 1008.13 1007.88 1007.68 1007.45 1007.50 1007.53 1007.64 1007.72 1008.07 1008.08 1008.10 1007.56 1007.10 1006.62 1007.02 1007.74 1007.99 1008.57 1008.62 1009.65 1008.81 1008.33 1008.43 1008.57 1009.00 1009.46 1009.95 1010.01 1010.18 1010.54 1011.10 1011.56 1011.98 1012.25 1012.50 1012.69 1012.65 1012.94 1013.00 1013.23 1013.30
1008.24 1007.86 1007.50 1007.19 1007.07 1006.93 1006.98 1006.98 1007.10 1007.01 1007.24 1007.22 1007.21 1007.32 1006.59 1006.26 1007.02 1007.46 1008.32 1008.46 1007.85 1009.02 1008.74 1008.08 1008.03 1008.09 1008.01 1008.46 1008.85 1009.09 1009.64 1010.13 1010.43 1010.97 1011.23 1011.45 1011.50 1011.67 1012.09 1012.70 1012.87 1013.01 1013.09
1007.60 1007.34 1006.90 1006.48 1006.28 1006.21 1006.15 1006.12 1006.07 1006.11 1006.05 1006.03 1005.78 1005.63 1005.31 1005.37 1006.20 1007.19 1007.66 1007.67 1007.85 1008.02 1007.67 1008.03 1007.61 1007.39 1007.82 1007.96 1008.63 1008.98 1009.15 1009.25 1009.60 1009.98 1010.32 1010.63 1011.03 1011.57 1011.95 1012.23 1012.85 1013.15 1013.30
1006.78 1006.54 1006.20 1005.84 1005.50 1005.33 1005.20 1005.20 1005.09 1004.93 1004.86 1004.75 1004.63 1004.55 1004.64 1004.77 1005.14 1005.53 1005.50 1006.54 1006.93 1008.36 1007.53 1007.09 1007.41 1007.41 1007.67 1008.29 1008.37 1008.12 1008.37 1008.74 1009.08 1009.35 1009.74 1010.19 1010.77 1011.07 1011.39 1011.75 1012.30 1012.94 1013.11
1006.02 1005.64 1005.31 1004.98 1004.61 1004.47 1004.44 1004.41 1004.32 1004.30 1003.98 1004.18 1003.96 1004.05 1003.65 1003.70 1004.35 1004.46 1004.29 1004.58 1004.65 1006.66 1006.93 1006.96 1006.07 1006.33 1006.66 1007.33 1007.70 1007.88 1007.91 1008.11 1008.27 1008.79 1009.29 1009.67 1010.23 1010.74 1011.15 1011.62 1011.80 1012.23 1012.66
1005.09 1004.72 1004.35 1004.11 1003.88 1003.90 1003.81 1004.08 1003.98 1003.64 1003.61 1003.70 1003.80 1003.70 1004.05 1004.41 1004.86 1004.31 1003.14 1002.72 1005.09 1005.12 1005.42 1005.52 1003.41 1004.38 1005.79 1006.28 1006.63 1007.01 1007.03 1007.17 1007.57 1008.21 1008.85 1009.35 1009.88 1010.31 1010.82 1011.24 1011.51 1011.85 1012.12
1003.85 1003.68 1003.50 1003.17 1003.08 1003.06 1003.00 1003.07 1003.14 1003.21 1003.30 1003.10 1003.13 1003.51 1003.70 1003.97 1004.11 1004.40 1004.58 1005.12 1005.70 1005.23 1005.50 1004.39 1004.19 1004.60 1004.76 1005.24 1005.56 1005.96 1006.26 1006.65 1007.13 1007.67 1008.23 1008.71 1009.33 1009.73 1010.38 1010.84 1011.14 1011.26 1011.40
1002.94 1002.66 1002.37 1002.20 1002.11 1002.06 1002.10 1002.18 1002.29 1002.25 1002.29 1002.25 1002.63 1003.34 1003.57 1003.86 1003.84 1003.90 1004.04 1003.94 1004.13 1004.48 1004.21 1003.99 1003.41 1003.64 1003.51 1003.97 1004.57 1004.70 1005.04 1005.90 1006.40 1006.91 1007.66 1008.07 1008.59 1009.04 1009.52 1009.94 1010.10 1010.35 1010.60
1001.79 1001.57 1001.41 1001.27 1001.27 1001.26 1001.23 1001.43 1001.51 1001.44 1001.33 1001.38 1001.52 1001.73 1002.67 1003.73 1004.08 1003.80 1003.55 1003.27 1003.34 1003.14 1003.00 1002.64 1002.78 1002.79 1002.96 1002.94 1003.26 1003.74 1004.20 1005.09 1005.66 1006.25 1006.90 1007.39 1007.89 1008.26 1008.73 1009.25 1009.64 1009.79 1010.05
1000.71 1000.41 1000.32 1000.32 1000.44 1000.48 1000.41 1000.54 1000.58 1000.76 1000.69 1000.50 1000.39 1000.47 1000.86 1001.60 1001.60 1001.88 1002.08 1002.26 1002.09 1002.32 1002.17 1002.23 1001.52 1001.70 1001.98 1002.25 1002.32 1002.85 1003.54 1004.26 1005.02 1005.63 1006.21 1006.68 1006.95 1007.67 1008.03 1008.55 1008.84 1009.13 1009.45
999.80 999.56 999.50 999.58 999.84 999.93 999.69 999.60 999.72 999.82 999.79 999.82 999.69 999.90 999.86 1000.41 1000.41 1000.44 1000.77 1000.73 1000.58 1000.84 1000.70 1000.75 1000.77 1001.07 1001.40 1001.73 1001.90 1002.10 1002.92 1003.61 1004.23 1004.83 1005.46 1005.83 1006.18 1006.65 1007.19 1007.84 1008.38 1008.64 1009.00
999.12 998.93 998.83 998.94 999.12 999.22 999.08 998.98 998.96 998.89 998.85 998.63 998.74 998.91 999.14 999.19 999.21 999.24 999.35 999.53 999.74 999.66 999.38 999.42 999.89 1000.58 1001.21 1001.28 1001.39 1001.63 1002.23 1002.78 1003.22 1003.80 1004.57 1005.01 1005.57 1006.23 1006.70 1007.15 1007.70 1008.15 1008.52
998.81 998.29 998.15 998.25 998.45 998.55 998.51 998.49 998.27 998.06 997.96 997.81 997.75 997.68 997.85 998.21 998.36 998.34 998.46 998.59 999.02 999.00 999.24 999.14 999.48 1000.12 1000.78 1000.99 1001.02 1001.22 1001.53 1002.02 1002.37 1003.05 1003.49 1004.26 1004.95 1005.86 1006.21 1006.82 1007.01 1007.44 1008.00
998.47 997.95 997.75 997.73 997.81 997.87 997.85 997.68 997.51 997.35 997.38 997.00 996.70 996.78 997.05 997.73 997.89 997.98 997.54 997.58 998.05 998.45 998.55 998.53 998.88 999.30 999.50 1000.33 1000.67 1000.94 1000.96 1001.52 1002.00 1002.53 1003.34 1003.94 1004.69 1005.45 1005.95 1006.50 1006.65 1006.90 1007.28
998.01 997.78 997.61 997.40 997.22 997.12 997.07 997.00 996.84 996.64 996.50 996.24 996.43 996.53 996.85 996.91 997.10 997.09 996.98 997.41 997.64 997.80 998.02 998.15 998.51 999.06 999.18 1000.25 1000.75 1000.82 1001.32 1001.47 1002.14 1002.38 1003.21 1004.21 1005.04 1005.60 1005.89 1006.25 1006.62 1007.20 1007.68
Wind_Speed
6 6 9 11 12 11 11 11 10 9 8 9 9 8 9 9 9 8 7 7 7 6 5 5 6 5 4 3 2 1 1 2 2 3 2 1 2 2 3 6 5 5 5
6 6 6 9 10 11 12 12 11 12 10 11 10 9 9 10 10 11 10 10 9 8 10 6 7 5 6 5 3 4 3 3 4 4 3 2 4 2 4 4 5 6 5
8 9 11 16 11 14 14 13 12 12 12 12 10 11 11 11 10 10 11 10 10 9 8 7 8 7 6 4 4 4 3 3 3 3 3 2 4 3 2 2 2 2 1
7 12 15 16 13 14 15 14 14 12 12 12 12 12 12 12 13 13 12 10 10 9 10 9 9 8 8 7 6 6 5 4 3 3 3 3 4 3 1 3 3 2 3
8 14 18 17 13 13 12 13 13 13 14 14 13 12 12 12 10 12 11 10 10 9 9 10 9 9 10 9 5 6 6 4 4 4 3 3 3 2 3 3 3 2 3
6 6 6 7 8 11 12 12 14 16 16 13 14 14 13 10 14 16 14 10 11 11 11 9 8 11 12 14 15 11 9 7 6 4 4 4 5 4 3 4 3 1 3
2 7 7 6 6 6 10 12 14 15 12 15 14 13 13 13 16 16 17 10 10 12 12 10 9 9 10 9 12 13 12 13 12 7 6 7 4 6 4 3 4 3 4
6 2 3 3 4 6 6 5 8 6 5 8 10 8 7 7 12 17 16 13 11 11 12 11 11 12 9 10 9 8 9 9 9 7 7 7 6 4 6 5 4 3 0
8 8 5 3 5 6 5 6 4 3 0 3 1 8 6 5 7 5 7 8 11 13 11 12 12 12 13 14 8 9 8 6 3 5 7 8 8 9 6 4 3 3 2
7 9 8 5 4 6 6 4 2 2 5 4 6 10 6 20 17 16 11 8 12 10 11 13 16 16 14 16 12 9 8 7 6 3 3 1 3 2 4 4 3 3 3
6 7 7 7 7 6 4 3 4 5 5 6 7 6 12 19 17 17 15 8 10 10 11 10 11 19 17 17 16 10 11 7 8 7 5 4 3 4 3 3 4 4 3
7 7 8 7 6 5 6 4 6 5 6 7 6 6 8 15 10 7 7 13 8 11 14 11 11 17 19 18 14 16 12 9 4 5 4 4 4 4 4 4 4 4 3
8 12 12 7 7 6 5 6 4 6 6 7 7 7 9 8 2 4 2 7 9 13 14 15 12 15 18 16 16 14 12 7 6 4 7 6 4 5 5 4 2 2 2
11 12 10 11 10 8 5 5 5 5 6 7 7 9 9 7 5 8 5 5 7 10 17 14 11 11 10 6 5 7 8 7 7 6 4 3 3 4 5 4 4 3 2
10 11 11 10 9 7 6 5 5 6 7 7 8 8 9 7 7 11 11 5 6 6 8 4 5 5 6 5 5 6 6 5 6 5 4 5 4 4 5 4 4 3 4
11 10 9 9 8 5 6 5 10 11 10 11 10 8 7 7 22 22 24 17 9 4 2 9 8 8 8 8 8 7 6 8 6 5 4 4 4 5 6 4 3 4 4
11 11 9 9 9 5 5 5 5 5 9 9 10 8 6 3 3 10 14 20 25 15 6 8 7 6 8 9 8 8 8 8 6 6 5 5 5 5 6 4 4 4 4
12 15 10 9 8 6 7 6 5 5 5 8 12 14 11 11 4 6 9 6 3 7 11 7 10 10 10 10 9 9 6 6 6 6 6 6 6 7 5 4 5 5 5
11 9 9 9 8 8 7 5 6 7 8 6 3 3 6 9 12 10 11 6 7 9 9 10 8 9 9 9 11 9 9 8 7 6 6 5 7 8 5 5 5 7 6
11 17 15 9 6 6 6 5 7 6 6 5 7 6 6 7 7 8 7 8 7 7 10 10 9 7 9 10 8 7 7 7 6 6 6 6 6 6 5 5 5 5 4
9 9 12 9 7 5 6 7 7 5 6 5 8 7 13 9 8 8 9 9 8 8 7 10 9 9 9 8 7 7 7 7 7 7 7 7 6 5 5 6 5 4 4
8 9 7 7 5 5 8 6 5 5 7 8 7 7 13 8 5 6 7 7 8 10 7 6 6 7 8 8 8 8 8 9 8 8 8 8 7 6 6 5 4 4 4
6 7 5 4 4 6 6 5 5 5 7 8 7 6 6 7 8 7 6 7 8 6 5 6 4 4 4 6 7 8 9 9 9 8 8 8 8 6 5 5 5 5 4
6 6 6 5 4 5 6 6 6 7 7 7 7 8 7 7 7 9 7 7 7 7 7 6 5 7 7 6 5 6 7 7 8 10 14 10 8 7 5 4 4 5 4
7 5 5 5 5 5 6 7 7 5 8 8 8 7 5 7 8 9 7 7 7 7 7 5 5 7 9 9 8 9 10 15 10 9 4 6 7 8 6 4 5 4 4
5 4 3 3 4 4 4 4 4 5 5 5 3 3 3 5 7 6 5 5 5 4 4 5 6 10 10 8 9 12 12 13 10 11 7 6 6 5 5 5 8 5 6
Wind_Direction
190 204 237 205 198 195 197 203 205 211 205 198 200 203 198 215 207 194 202 209 208 222 229 219 242 246 251 232 201 200 178 154 220 306 281 322 244 221 244 217 219 235 236
217 140 250 236 210 200 208 206 203 206 210 208 200 197 204 205 203 202 206 213 209 219 232 222 227 219 237 243 204 207 199 182 182 231 238 265 244 259 249 247 240 237 222
332 339 298 257 221 217 215 213 204 204 208 210 200 204 204 208 204 204 204 207 209 209 210 217 223 209 228 221 225 216 212 182 212 173 239 218 232 227 225 240 255 283 314
319 284 264 257 230 220 214 212 212 207 204 202 204 203 204 206 207 205 205 206 213 213 220 219 223 214 216 214 218 221 221 224 205 211 235 242 236 247 214 212 274 233 240
244 273 269 248 237 219 222 214 209 210 211 205 202 200 195 195 200 203 202 203 205 213 222 231 230 225 214 210 199 221 210 217 213 217 233 229 215 229 214 224 226 252 283
304 307 310 336 266 241 228 213 210 206 207 206 203 198 193 203 200 195 199 205 205 211 222 229 229 220 227 225 222 219 202 206 217 198 222 215 222 208 200 215 214 205 281
333 323 321 341 322 326 285 232 226 221 208 203 206 199 200 201 193 199 200 208 209 219 223 219 227 233 225 231 233 228 236 230 221 210 217 218 216 207 197 225 217 213 220
318 314 327 293 276 283 295 312 355 271 219 223 220 204 213 211 199 197 202 210 216 221 221 218 222 231 220 214 226 232 233 223 221 220 221 234 218 201 201 198 211 211 340
300 300 295 300 314 314 318 306 275 249 229 329 226 115 70 356 350 310 275 242 227 226 223 222 223 228 223 207 207 218 229 231 133 225 245 247 230 222 195 146 191 150 292
284 274 280 277 264 290 299 317 253 262 241 204 189 116 299 273 237 227 210 242 243 231 229 227 220 225 213 211 212 220 227 227 194 193 207 199 182 195 202 202 160 179 166
281 289 275 263 263 258 265 201 221 235 247 225 244 247 217 232 218 196 195 207 236 242 235 228 226 212 213 213 211 208 219 192 200 203 206 198 198 210 210 215 195 156 164
283 283 278 269 248 240 240 242 232 227 207 231 223 240 234 245 238 235 218 226 236 271 255 238 228 203 206 213 209 219 206 181 182 177 178 203 197 198 197 193 196 199 190
272 281 274 265 268 254 233 242 227 216 215 227 212 223 251 251 133 121 11 265 229 254 256 256 227 205 206 215 211 205 187 189 181 180 207 211 189 188 146 156 176 174 165
271 269 274 278 269 256 227 229 229 232 234 229 224 234 242 239 129 115 116 80 16 292 245 252 225 206 214 197 146 182 197 187 185 193 183 190 152 154 172 157 163 172 161
267 265 267 264 264 255 236 218 225 245 234 233 231 227 227 218 172 155 127 100 53 307 287 205 206 193 175 190 213 196 184 175 188 186 167 171 183 170 177 158 138 160 193
267 263 254 260 259 238 254 261 218 236 266 254 261 227 244 222 167 169 159 139 82 238 276 243 198 202 197 199 206 201 196 196 197 174 177 169 172 182 176 165 141 169 192
251 256 254 252 257 236 243 222 259 245 231 262 278 266 274 231 271 205 158 146 192 182 216 235 210 197 212 206 194 191 199 200 179 181 182 178 174 177 160 170 181 169 213
252 247 252 250 249 232 241 241 224 232 240 247 234 233 243 263 296 178 223 137 165 224 219 204 205 199 204 203 191 195 189 175 189 186 192 183 178 179 163 181 191 188 204
261 250 250 246 239 229 234 221 226 241 247 246 207 158 187 180 185 190 181 184 191 214 211 213 203 200 200 193 201 188 175 183 185 170 185 171 182 179 180 201 189 189 172
259 251 246 247 236 225 231 231 247 238 252 242 237 221 148 158 182 191 196 212 217 225 219 210 206 200 211 196 181 173 164 173 176 174 181 174 173 170 170 175 184 182 185
258 256 243 239 228 216 232 237 238 233 252 246 248 216 180 189 209 191 185 203 210 221 216 219 199 204 202 194 176 168 164 173 184 181 180 184 163 167 175 186 187 196 200
246 248 242 230 201 210 231 234 222 225 234 244 244 235 187 209 213 190 183 203 211 212 192 204 214 201 200 195 182 167 171 179 179 177 182 178 177 183 162 164 188 200 206
239 238 225 215 204 215 235 234 243 243 244 246 231 221 181 214 226 228 202 194 209 218 214 189 177 181 207 196 180 173 171 179 183 172 176 174 174 178 168 176 185 208 203
272 233 228 225 219 221 230 234 233 237 249 251 235 225 207 207 220 229 205 185 206 204 213 195 174 181 186 204 188 181 177 179 168 176 170 169 167 166 171 175 179 195 205
271 248 235 230 227 230 235 233 234 229 252 255 239 234 203 184 216 222 213 184 191 199 200 188 160 190 187 184 168 161 147 146 151 136 139 144 155 163 160 184 192 194 165
275 263 291 279 241 221 218 232 233 243 246 216 209 209 225 202 203 222 214 188 187 185 202 177 166 181 165 159 149 137 145 137 128 131 137 133 142 139 132 118 93 86 97